Location: Boston
(42.3580°N, 71.0600°W)
Time: 14:05:17
(UTC-04:00)

OTV 5 (USA 277) - Pass Details

Date: 11 October 2017
Orbit: 404 x 417 km, 43.0° (Epoch: 07 September)

Event Time Altitude Azimuth Distance (km) Brightness Sun altitude
Rises 18:52:45 0° 231° (SW) 2,345 ? -9.0°
Reaches altitude 10° 18:54:57 10° 221° (SW) 1,485 ? -9.4°
Maximum altitude 18:58:02 34° 155° (SSE) 701 ? -10.0°
Enters shadow 19:00:17 16° 95° (E) 1,187 ? -10.4°
